www.pogodaiklimat.ru
Время
(UTC), дата
04 20.02
05 20.02
06 20.02
07 20.02
08 20.02
09 20.02
10 20.02
11 20.02
12 20.02
13 20.02
14 20.02
15 20.02
16 20.02
17 20.02
18 20.02
19 20.02
20 20.02
21 20.02
22 20.02
23 20.02
00 21.02
01 21.02
02 21.02
03 21.02
04 21.02
05 21.02
06 21.02
07 21.02
08 21.02
09 21.02
10 21.02
11 21.02
12 21.02
13 21.02
14 21.02
15 21.02
16 21.02
17 21.02
18 21.02
19 21.02
20 21.02
21 21.02
22 21.02
23 21.02
00 22.02
01 22.02
02 22.02
03 22.02
04 22.02
05 22.02
06 22.02
07 22.02
08 22.02
09 22.02
10 22.02
11 22.02
12 22.02
13 22.02
14 22.02
15 22.02
16 22.02
17 22.02
18 22.02
19 22.02
20 22.02
21 22.02
22 22.02
23 22.02
00 23.02
01 23.02
02 23.02
03 23.02
04 23.02
05 23.02
06 23.02
07 23.02
08 23.02
09 23.02
10 23.02
11 23.02
12 23.02
13 23.02
14 23.02
15 23.02
16 23.02
17 23.02
18 23.02
19 23.02
20 23.02
21 23.02
22 23.02
23 23.02
00 24.02
01 24.02
02 24.02
03 24.02
04 24.02
05 24.02
06 24.02
07 24.02
08 24.02
09 24.02
10 24.02
11 24.02
12 24.02
13 24.02
14 24.02
15 24.02
16 24.02
17 24.02
18 24.02
19 24.02
20 24.02
21 24.02
22 24.02
23 24.02
00 25.02
01 25.02
02 25.02
03 25.02
04 25.02
05 25.02
06 25.02
07 25.02
08 25.02
09 25.02
10 25.02
11 25.02
12 25.02
13 25.02
14 25.02
15 25.02
16 25.02
17 25.02
18 25.02
19 25.02
20 25.02
21 25.02
22 25.02
23 25.02
00 26.02
01 26.02
02 26.02
03 26.02
04 26.02
05 26.02
06 26.02
07 26.02
08 26.02
09 26.02
10 26.02
11 26.02
12 26.02
13 26.02
14 26.02
15 26.02
16 26.02
17 26.02
18 26.02
19 26.02
20 26.02
21 26.02
22 26.02
23 26.02
00 27.02
01 27.02
02 27.02
03 27.02
04 27.02
Ветер
(напр.,м/с)
Видим. Явления Облачность Т
(С)
Тd
(С)
f
(%)
Тe
(С)
Тes
(С)
Комфортность P
(гПа)
Po
(гПа)
Тmin
(С)
Tmax
(С)
R
(мм)
R24
(мм)
S
(см)
ЮЗ 5 50 км слаб. ливневой дождь н/о +7.5 +6.4 93 +4 +4 тепло 995.7 988.1
СЗ 2 16 км дождь н/о +5.6 +5.0 96 +3 +3 тепло 996.0 988.4
З 5 13 км дождь н/о +4.7 +4.2 97 -0 -0 по сезону 997.0 989.4 +4.7 11 14.4
З 4 11 км дождь н/о +4.1 +3.4 95 -1 -1 тепло 997.5 989.8
ЮЗ 4 50 км в посл. час дождь н/о +4.0 +3.1 94 -1 -1 тепло 998.6 990.9
З 5 29 км н/о +4.3 +2.8 90 -1 -1 по сезону 999.7 992.0
З 7 40 км н/о +4.1 +1.3 82 -2 -2 по сезону 1000.9 993.1
З 7 35 км н/о +3.8 +1.4 84 -2 -2 тепло 1002.0 994.3
З 8-13
{13}
28 км н/о +3.8 +0.3 78 -2 -2 прохладно 1002.6 994.9 2
З 9
{13}
17 км н/о +5.4 +1.3 75 -0 -0 по сезону 1003.1 995.4
З 10-17
{17}
35 км н/о +5.0 +1.2 76 -1 -1 тепло 1004.2 996.4
З 7
{14}
17 км слаб. ливневой дождь н/о +4.4 +1.5 81 -1 -1 прохладно 1005.1 997.3
З 10-15
{16}
6000 м ливневой дождь н/о +2.4 +1.3 92 -5 -5 по сезону 1006.4 998.6
ЮЗ 7 30 км в посл. час дождь н/о +3.6 +1.9 89 -3 -3 по сезону 1007.2 999.4
ЮЗ 5
{16}
27 км в посл. час дождь н/о +3.0 +1.5 90 -2 -2 прохладно 1008.4 1000.5 +5.8 3
ЮЗ 7 26 км в посл. час дождь н/о +3.5 +1.4 86 -3 -3 по сезону 1009.6 1001.8
ЮЗ 7 17 км н/о +3.7 +1.9 88 -2 -2 тепло 1010.2 1002.4
ЮЗ 7 17 км н/о +3.7 +1.6 86 -2 -2 по сезону 1010.6 1002.8
ЮЗ 7 22 км н/о +3.7 +1.8 87 -2 -2 по сезону 1011.2 1003.4
ЮЗ 7 23 км н/о +4.1 +1.9 86 -2 -2 тепло 1011.5 1003.7
ЮЗ 7 20 км н/о +4.1 +2.2 87 -2 -2 по сезону 1011.6 1003.8 0.0
ЮЗ 9-14
{14}
18 км н/о +4.8 +2.1 83 -1 -1 по сезону 1011.5 1003.7
ЮЗ 8-14
{14}
19 км н/о +5.2 +3.1 86 -1 -1 тепло 1010.9 1003.1
ЮЗ 9-15
{16}
15 км слаб. ливневой дождь н/о +5.3 +3.7 89 -1 -1 по сезону 1009.9 1002.2
Ю 8
{15}
13 км слаб. морось н/о +5.6 +4.4 92 -0 -0 тепло 1008.8 1001.0
ЮЗ 9-15
{15}
13 км слаб. морось н/о +5.9 +4.8 93 -0 -0 тепло 1007.6 999.8
ЮЗ 8
{15}
15 км слаб. дождь н/о +6.3 +5.3 93 +1 +1 по сезону 1006.9 999.2 +3.0 0.2 3.4
ЮЗ 8-14
{14}
14 км слаб. дождь н/о +7.1 +5.9 92 +2 +2 тепло 1006.4 998.7
ЮЗ 9
{14}
12 км слаб. дождь н/о +7.6 +6.4 92 +2 +2 тепло 1006.1 998.4
ЮЗ 10
{14}
21 км в посл. час дождь н/о +8.5 +6.7 88 +3 +3 по сезону 1005.9 998.2
ЮЗ 8
{16}
19 км слаб. ливневой дождь н/о +8.7 +7.1 90 +4 +4 тепло 1005.9 998.3
ЮЗ 9-17
{17}
40 км в посл. час дождь н/о +9.2 +7.6 90 +5 +5 тепло 1005.6 998.0
ЮЗ 9-14
{15}
20 км слаб. морось с дождем н/о +9.7 +8.0 89 +5 +5 по сезону 1005.5 997.9 0.4
ЮЗ 10-16
{16}
17 км слаб. дождь н/о +10.0 +8.2 89 +5 +5 тепло 1005.5 997.9
ЮЗ 9
{14}
50 км в посл. час дождь н/о +10.2 +8.3 88 +6 +6 тепло 1004.9 997.3
ЮЗ 9-14
{15}
50 км н/о +10.6 +8.5 87 +7 +7 тепло 1004.4 996.8
ЮЗ 9
{15}
50 км н/о +10.2 +8.3 88 +6 +6 тепло 1003.8 996.2
ЮЗ 9
{15}
50 км н/о +10.2 +8.2 87 +6 +6 тепло 1003.0 995.4
ЮЗ 9-15
{15}
18 км слаб. ливневой дождь н/о +9.9 +8.5 91 +5 +5 по сезону 1002.2 994.6 +10.8 0.6
ЮЗ 9
{15}
18 км слаб. дождь н/о +9.6 +8.6 93 +5 +5 тепло 1002.0 994.4
ЮЗ 9-15
{15}
50 км в посл. час дождь н/о +9.8 +8.5 92 +5 +5 тепло 1000.7 993.2
ЮЗ 9-15
{16}
35 км н/о +10.1 +8.6 90 +6 +6 тепло 999.5 991.9
ЮЗ 10-16
{16}
14 км н/о +10.2 +8.9 92 +6 +6 тепло 998.9 991.4
ЮЗ 10
{17}
50 км в посл. час дождь н/о +9.9 +8.4 90 +5 +5 тепло 998.7 991.2
З 13-22
{22}
8000 м сильн. ливневой дождь н/о +7.5 +6.4 93 +1 +1 по сезону 999.1 991.4 4
З 9-14
{17}
15 км в посл. час дождь н/о +8.2 +5.3 82 +3 +3 тепло 999.5 991.9
З 10
{15}
8000 м ливневой дождь н/о +6.9 +3.7 80 +1 +1 тепло 999.8 992.1
З 10-17
{20}
50 км в посл. час дождь н/о +5.5 +2.9 83 -1 -1 по сезону 1001.1 993.4
З 9
{15}
45 км в посл. час дождь н/о +5.9 +3.2 83 0 0 тепло 1001.2 993.5
З 10
{17}
50 км в посл. час дождь н/о +4.5 +2.4 86 -2 -2 тепло 1001.7 994.0
ЮЗ 7
{16}
45 км н/о +5.0 +2.9 86 -1 -1 по сезону 1002.4 994.7 +4.3 5 5.8
З 7
{16}
19 км н/о +5.5 +1.5 75 0 0 тепло 1003.0 995.3
З 13-21
{21}
4200 м ливневой дождь н/о +3.9 +1.4 84 -4 -4 тепло 1004.3 996.5
З 8-13
{20}
30 км в посл. час дождь н/о +4.6 +2.1 84 -1 -1 по сезону 1005.4 997.6
З 12-19
{19}
16 км ливневой дождь н/о +3.0 +1.8 92 -5 -5 по сезону 1006.7 998.9
З 8
{20}
17 км слаб. ливневой дождь н/о +4.6 +1.9 83 -1 -1 тепло 1007.1 999.4
З 10-15
{24}
45 км в посл. час дождь н/о +3.5 +2.5 93 -4 -4 холодно 1008.5 1000.7 6
ЮЗ 9
{20}
29 км в посл. час дождь н/о +4.4 +2.3 86 -2 -2 по сезону 1009.0 1001.2
ЮЗ 9
{23}
35 км в посл. час дождь н/о +3.8 +2.2 89 -3 -3 по сезону 1009.8 1002.0
ЮЗ 8-13
{18}
27 км в посл. час дождь н/о +4.9 +1.8 80 -1 -1 прохладно 1010.0 1002.2
З 10 19 км н/о +5.6 +1.5 75 -1 -1 по сезону 1010.6 1002.9
ЮЗ 9
{15}
30 км в посл. час дождь н/о +4.5 +2.0 84 -2 -2 тепло 1011.2 1003.4
З 9
{15}
29 км в посл. час дождь н/о +3.9 +0.8 80 -3 -3 прохладно 1011.3 1003.4 +5.9 9
ЮЗ 5
{14}
13 км слаб. ливневой дождь н/о +3.7 +2.3 91 -2 -2 по сезону 1012.1 1004.3
ЮЗ 4 28 км в посл. час дождь н/о +3.5 +2.4 92 -1 -1 тепло 1011.7 1003.9
ЮЗ 7 17 км слаб. ливневой дождь н/о +4.9 +3.0 87 -1 -1 по сезону 1011.6 1003.8
ЮЗ 7 15 км слаб. ливневой дождь н/о +4.5 +3.6 94 -1 -1 по сезону 1010.8 1003.0
ЮЗ 3 18 км слаб. морось н/о +4.3 +3.7 96 0 0 тепло 1010.5 1002.7
ЮЗ 4 13 км слаб. дождь н/о +4.3 +3.7 96 0 0 по сезону 1009.3 1001.5 0.8
ЮЗ 3 13 км слаб. дождь н/о +4.3 +3.6 95 0 0 тепло 1008.3 1000.5
ЮЗ 3 15 км дождь н/о +4.1 +3.8 98 0 0 тепло 1007.3 999.5
ЮЗ 3 16 км дождь н/о +3.9 +3.5 97 -0 -0 по сезону 1006.2 998.4
ЮЗ 2 35 км дождь н/о +3.6 +3.2 97 0 0 тепло 1005.2 997.5
З 4 16 км дождь н/о +3.2 +2.7 97 -1 -1 тепло 1005.6 997.8
З 4 35 км слаб. дождь н/о +2.8 +2.2 96 -2 -2 по сезону 1006.2 998.4 +2.8 6 15.0
З 3 50 км слаб. дождь н/о +3.1 +2.4 95 -1 -1 по сезону 1007.5 999.7
З 6 45 км слаб. ливневой дождь н/о +3.4 +1.8 89 -2 -2 тепло 1009.4 1001.6
З 5 50 км в посл. час дождь н/о +3.3 +1.6 89 -2 -2 прохладно 1010.3 1002.5
З 7 35 км н/о +3.9 +1.5 84 -2 -2 по сезону 1011.4 1003.6
З 7 35 км н/о +5.2 +0.8 73 -0 -0 тепло 1013.1 1005.3
З 8
{13}
30 км н/о +6.2 -0.6 62 +1 +1 по сезону 1014.2 1006.5 0.2
З 10
{15}
30 км н/о +6.9 -1.4 55 +2 +2 по сезону 1015.2 1007.4
З 8
{16}
21 км н/о +7.1 -0.9 57 +3 +3 тепло 1016.4 1008.6
З 7 28 км н/о +7.3 -0.9 56 +3 +3 по сезону 1017.3 1009.5
З 6 25 км н/о +7.3 0.0 60 +3 +3 тепло 1017.7 1010.0
З 5 30 км н/о +6.1 0.0 65 +2 +2 тепло 1018.4 1010.6
ЮЗ 4 35 км н/о +5.1 -0.3 68 +2 +2 по сезону 1019.3 1011.4 +7.9 0.2
ЮЗ 4 35 км н/о +4.5 -0.3 71 +1 +1 по сезону 1019.5 1011.6
ЮЗ 4 30 км н/о +4.1 0.0 75 0 0 тепло 1019.4 1011.6
Ю 3 27 км н/о +3.9 +0.7 80 +1 +1 по сезону 1019.0 1011.1
Ю 3 30 км н/о +3.7 -0.2 76 0 0 по сезону 1018.2 1010.3
Ю 3 30 км н/о +3.9 -0.5 73 0 0 тепло 1018.0 1010.1
ЮВ 3 45 км н/о +3.8 -0.3 75 0 0 по сезону 1016.3 1008.4
Ю 8 15 км слаб. ливневой дождь н/о +3.5 +0.1 78 -3 -3 по сезону 1015.1 1007.2
В 5 10 км дождь н/о +1.7 +0.7 93 -4 -4 тепло 1013.0 1005.2
В 5 2300 м снег н/о +0.7 +0.2 96 -6 -6 холодно 1009.7 1001.8
В 7 3600 м снег н/о +1.1 +0.6 96 -6 -6 по сезону 1006.5 998.7
В 9 2600 м снег н/о +0.9 +0.4 96 -7 -7 по сезону 1003.3 995.4
ЮВ 8
{16}
7000 м слаб. дождь н/о +1.3 +0.4 94 -6 -6 холодно 1000.5 992.7 +0.6 11 11.6
В 10
{14}
6000 м слаб. дождь н/о +2.1 +1.1 93 -5 -5 по сезону 997.7 990.0
В 7
{15}
3500 м слаб. дождь н/о +3.2 +2.3 94 -3 -3 тепло 996.0 988.3
В 4 3100 м слаб. морось н/о +3.1 +2.8 98 -2 -2 прохладно 994.8 987.1
ЮВ 1 2700 м в посл. час дождь н/о +5.0 +4.9 99 +3 +3 тепло 994.7 987.1
ЮЗ 4 2200 м дымка н/о +5.5 +5.4 99 +1 +1 тепло 995.3 987.6
ЮЗ 5 9000 м дымка н/о +4.7 +4.5 99 -0 -0 прохладно 996.3 988.6 4
З 8
{13}
27 км н/о +5.1 +3.4 89 -1 -1 по сезону 997.4 989.7
З 7 11 км н/о +5.0 +3.7 91 -1 -1 тепло 997.9 990.2
З 9-14
{15}
45 км н/о +5.3 +3.0 85 -1 -1 прохладно 998.5 990.8
З 8 45 км н/о +5.9 +2.5 79 +1 +1 по сезону 999.1 991.4
З 8 50 км н/о +5.3 +2.6 83 -0 -0 тепло 1000.0 992.3
З 6 50 км н/о +4.7 +2.5 86 -0 -0 по сезону 1000.8 993.1 +6.1 4
З 6 50 км н/о +4.5 +2.6 87 -1 -1 по сезону 1001.5 993.8
З 5 50 км н/о +3.7 +2.0 89 -1 -1 тепло 1001.5 993.8
ЮЗ 5 50 км н/о +3.1 +1.2 87 -2 -2 прохладно 1001.7 994.0
ЮЗ 4 35 км н/о +3.2 +1.3 87 -2 -2 по сезону 1001.6 993.8
ЮЗ 5 45 км н/о +3.3 +1.8 90 -2 -2 тепло 1001.0 993.3
ЮЗ 5 40 км осадки н/о +3.1 +1.7 91 -2 -2 по сезону 1000.5 992.8 0.0
ЮЗ 5 50 км в посл. час осадки н/о +2.8 +1.8 93 -3 -3 по сезону 1000.1 992.3
ЮЗ 5 35 км слаб. морось н/о +2.6 +1.5 92 -3 -3 тепло 999.5 991.7
ЮЗ 5 16 км слаб. ливневой дождь н/о +2.7 +1.8 94 -3 -3 прохладно 998.7 990.9
ЮЗ 6 50 км в посл. час дождь н/о +2.7 +1.7 93 -3 -3 по сезону 998.0 990.2
ЮЗ 5 50 км н/о +2.6 +1.5 92 -3 -3 тепло 997.4 989.7
ЮЗ 6 50 км н/о +2.2 +1.0 92 -4 -4 прохладно 996.8 989.1 +2.2 0.0 3.6
ЮЗ 5 50 км н/о +1.9 +0.9 93 -4 -4 по сезону 996.7 989.0
ЮЗ 4 26 км в посл. час осадки н/о +1.6 +0.9 95 -4 -4 тепло 996.1 988.3
ЮЗ 4 30 км н/о +2.1 +1.3 94 -3 -3 прохладно 995.8 988.0
ЮЗ 5 30 км н/о +2.7 +1.6 92 -3 -3 по сезону 995.2 987.4
ЮЗ 6 35 км н/о +3.3 +1.2 86 -2 -2 тепло 994.6 986.9
ЮЗ 6 50 км н/о +4.7 +2.1 83 -1 -1 прохладно 994.1 986.5 0.0
ЮЗ 5 50 км н/о +4.7 +1.4 79 0 0 по сезону 993.9 986.2
З 5 13 км н/о +4.6 +1.0 77 -0 -0 тепло 993.1 985.5
ЮЗ 5 40 км в посл. час дождь н/о +3.8 +2.0 88 -1 -1 прохладно 992.8 985.1
З 7 35 км в посл. час дождь н/о +3.9 +1.2 83 -2 -2 по сезону 992.5 984.8
З 6 45 км н/о +3.8 +1.0 82 -2 -2 тепло 992.6 984.9
З 7 50 км в посл. час дождь н/о +2.6 +0.7 87 -4 -4 холодно 992.9 985.2 +5.6 0.2
З 4 50 км в посл. час дождь н/о +2.3 +0.9 90 -3 -3 по сезону 993.5 985.8
ЮЗ 4 50 км н/о +1.0 +0.4 96 -4 -4 по сезону 993.2 985.4
З 5 45 км н/о +1.8 +0.6 92 -4 -4 прохладно 993.3 985.6
З 6 27 км н/о +2.1 +0.7 90 -4 -4 по сезону 994.2 986.5
З 6 40 км н/о +1.9 +0.5 90 -4 -4 тепло 995.0 987.3
З 6 17 км осадки н/о +2.3 +0.6 89 -4 -4 прохладно 996.0 988.3 0.0
З 6 40 км в посл. час дождь н/о +1.8 +0.9 94 -4 -4 по сезону 996.4 988.7
ЮЗ 5 40 км в посл. час дождь н/о +1.1 +0.7 97 -5 -5 тепло 997.3 989.5
З 5 50 км н/о +1.5 +0.7 94 -4 -4 прохладно 997.5 989.7
З 4 45 км н/о +2.3 +0.7 89 -3 -3 по сезону 998.3 990.6
З 5 14 км ливневой дождь н/о +2.6 +1.4 92 -3 -3 тепло 999.4 991.6
З 8 5000 м дождь н/о +1.7 +0.8 94 -6 -6 прохладно 1000.4 992.6 +0.8 3 2.8
СЗ 5 50 км в посл. час дождь н/о +1.9 +0.8 92 -4 -4 по сезону 1001.5 993.7
З 5 2800 м сильные осадки н/о +2.0 +0.7 91 -3 -3 тепло 1003.2 995.4
ЮЗ 4 16 км в посл. час дождь н/о +2.8 +1.5 91 -2 -2 по сезону 1003.5 995.7
ЮЗ 6 29 км н/о +3.2 +1.0 85 -2 -2 по сезону 1004.2 996.4
ЮЗ 6 25 км н/о +4.4 +1.0 79 -1 -1 тепло 1004.5 996.8
З 6 30 км н/о +5.4 +1.0 73 +1 +1 по сезону 1004.6 996.9 0.6
ЮЗ 7 35 км н/о +5.8 +0.4 68 +1 +1 по сезону 1004.5 996.8
ЮЗ 7 26 км н/о +5.0 +1.2 76 -0 -0 тепло 1004.6 996.9
З 5 35 км н/о +4.4 +1.7 83 -1 -1 по сезону 1004.2 996.4
ЮЗ 6 50 км в посл. час дождь н/о +4.6 +1.1 78 -0 -0 по сезону 1003.7 995.9
ЮЗ 3 50 км в посл. час дождь н/о +3.3 +1.7 89 -1 -1 тепло 1003.1 995.4
ЮЗ 4 50 км н/о +3.2 +1.1 86 -1 -1 по сезону 1002.7 994.9 +6.0 0.6
ЮЗ 4 45 км н/о +3.0 +1.2 88 -2 -2 по сезону 1002.3 994.5
ЮЗ 3 45 км н/о +2.7 +1.6 92 -2 -2 тепло 1001.6 993.9
ЮЗ 4 50 км н/о +3.0 +1.4 89 -2 -2 по сезону 1000.8 993.0
ЮЗ 4 40 км н/о +2.9 +1.6 91 -2 -2 по сезону 1000.3 992.6
ЮЗ 4 11 км слаб. ливневой дождь н/о +2.7 +1.8 94 -2 -2 тепло 999.8 992.1
ЮЗ 4 10 км слаб. ливневой дождь н/о +2.7 +1.9 94 -2 -2 по сезону 999.3 991.5 0.2
З 4 14 км слаб. морось н/о +2.3 +1.5 94 -3 -3 по сезону 998.9 991.1
З 4 40 км в посл. час дождь н/о +1.4 +0.8 96 -4 -4 тепло 998.8 991.0
З 4 50 км н/о +1.5 +0.8 95 -4 -4 прохладно 998.7 990.9
З 3 45 км в посл. час осадки н/о +1.1 +0.3 94 -4 -4 по сезону 998.7 990.9
Местоположение метеостанции Белфаст (Великобритания): широта 54.65 долгота -6.22 высота над уровнем моря 68 м.
В архиве по умолчанию представлена погода в Белфасте за последнюю неделю. Архивные данные за месяц целиком и за предыдущие месяцы, начиная с января 2011 года, Вы можете получить, выбрав интересующий диапазон дат из раскрывающегося списка и нажав кнопку "Найти!".
*Определитесь, кто Вы:
Внимание! Время в таблицах - всемирное. Для получения местного времени необходимо прибавить поправку, которая равна 0 ч.
Смотрите также архив погоды в соседних городах и на ближайших метеорологических станциях:
Партнеры нашего сайта:      
Пояснения к столбцам:
  • Ветер - указаны скорость ветра в м/с - средняя за 10 мин, порывы в срок и между сроками (в фигурных скобках) и направление, откуда дует ветер: С - северный,
  • СВ - северо-восточный, В - восточный, ЮВ - юго-восточный, Ю - южный, ЮЗ - юго-западный, З - западный, СЗ - северо-западный.
  • Видимость - горизонтальная дальность видимости в метрах или километрах. При видимости от 1 до 10 км при отсутствии осадков обычно наблюдается дымка, при ухудшении видимости до 1 км и менее - туман. В сухую погоду видимость может ухудшаться дымом, пылью или мглою.
  • Явления - указаны атмосферные явления, наблюдавшиеся в срок или в последний час перед сроком; фигурными скобками обозначены явления, наблюдавшиеся между сроками (за 1-3 часа до срока); квадратными скобками обозначены град или гололедные отложения с указанием их диаметра в мм.
  • Облачность - указаны через наклонную черту общая и нижняя облачность в баллах и высота нижней границы облаков в метрах; квадратными скобками обозначены формы облаков: Ci - перистые, Cs - перисто-слоистые, Cc - перисто-кучевые, Ac - высококучевые, As - высокослоистые, Sc - слоисто-кучевые, Ns - слоисто-дождевые, Cu - кучевые, Cb - кучево-дождевые. Подробнее классификацию облаков см. в Атласе облаков (PDF).
  • T - Температура воздуха - температура, измеренная на высоте 2 м над землей.
  • Td - Температура точки росы - температура, при понижении до которой содержащийся в воздухе водяной пар достигнет насыщения.
  • f - Относительная влажность воздуха - влажноcть воздуха, измеренная на высоте 2 м над землей.
  • Te - Эффективная температура - температура, которую ощущает одетый по сезону человек в тени. Характеристика душности погоды. При расчете учитывается влияние влажности воздуха и скорости ветра на теплоощущения человека.
  • Tes - Эффективная температура на солнце - температура, которую ощущает человек, с поправкой на солнечный нагрев. Характеристика знойности погоды. Зависит от высоты солнца над горизонтом, облачности и скорости ветра. Ночью, в пасмурную погоду, а также при ветре 12 м/с и более поправка равна нулю.
  • P - Атмосферное давление - приведенное к уровню моря атмосферное давление.
  • Po - Атмосферное давление - измеренное на уровне метеостанции атмосферное давление.
  • Tmin - Минимальная температура - минимум температуры воздуха на высоте 2 м над землей.
  • Tmax - Максимальная температура - максимум температуры воздуха на высоте 2 м над землей.
  • R - Количество осадков - Количество выпавших осадков за период времени, мм. При наведении курсора мыши на число - период времени, за который выпало указанное количество осадков.
  • R24 - Количество осадков - Количество выпавших осадков за 24 часа, мм.
  • S - Снежный покров - Высота снежного покрова, см. При наведении курсора мыши на число - состояние снежного покрова и степень покрытия местности в баллах.